02/05/2024 19:00:00,0.169
02/05/2024 19:15:00,0.168
02/05/2024 19:30:00,0.168
02/05/2024 19:45:00,0.167
02/05/2024 20:00:00,0.167
02/05/2024 20:15:00,0.166
02/05/2024 20:30:00,0.166
02/05/2024 20:45:00,0.166
02/05/2024 21:00:00,0.166
02/05/2024 21:15:00,0.165
02/05/2024 21:30:00,0.165
02/05/2024 21:45:00,0.165
02/05/2024 22:00:00,0.164
02/05/2024 22:15:00,0.164
02/05/2024 22:30:00,0.164
02/05/2024 22:45:00,0.163
02/05/2024 23:00:00,0.163
02/05/2024 23:15:00,0.163
02/05/2024 23:30:00,0.163
02/05/2024 23:45:00,0.163
03/05/2024 00:00:00,0.162
03/05/2024 00:15:00,0.162
03/05/2024 00:30:00,0.162
03/05/2024 00:45:00,0.162
03/05/2024 01:00:00,0.161
03/05/2024 01:15:00,0.161
03/05/2024 01:30:00,0.161
03/05/2024 01:45:00,0.161
03/05/2024 02:00:00,0.159
03/05/2024 02:15:00,0.159
03/05/2024 02:30:00,0.159
03/05/2024 02:45:00,0.158
03/05/2024 03:00:00,0.158
03/05/2024 03:15:00,0.158
03/05/2024 03:30:00,0.158
03/05/2024 03:45:00,0.158
03/05/2024 04:00:00,0.157
03/05/2024 04:15:00,0.157
03/05/2024 04:30:00,0.157
03/05/2024 04:45:00,0.157
03/05/2024 05:00:00,0.157
03/05/2024 05:15:00,0.157
03/05/2024 05:30:00,0.157
03/05/2024 05:45:00,0.157
03/05/2024 06:00:00,0.157
03/05/2024 06:15:00,0.156
03/05/2024 06:30:00,0.156
03/05/2024 06:45:00,0.156
03/05/2024 07:00:00,0.156
03/05/2024 07:15:00,0.156
03/05/2024 07:30:00,0.156
03/05/2024 07:45:00,0.156
03/05/2024 08:00:00,0.156
03/05/2024 08:15:00,0.155
03/05/2024 08:30:00,0.155
03/05/2024 08:45:00,0.155
03/05/2024 09:00:00,0.155
03/05/2024 09:15:00,0.155
03/05/2024 09:30:00,0.155
03/05/2024 09:45:00,0.155
03/05/2024 10:00:00,0.155
03/05/2024 10:15:00,0.155
03/05/2024 10:30:00,0.155
03/05/2024 10:45:00,0.155
03/05/2024 11:00:00,0.155
03/05/2024 11:15:00,0.155
03/05/2024 11:30:00,0.155
03/05/2024 11:45:00,0.155
03/05/2024 12:00:00,0.155
03/05/2024 12:15:00,0.155
03/05/2024 12:30:00,0.155
03/05/2024 12:45:00,0.155
03/05/2024 13:00:00,0.155
03/05/2024 13:15:00,0.155
03/05/2024 13:30:00,0.155
03/05/2024 13:45:00,0.155
03/05/2024 14:00:00,0.155
03/05/2024 14:15:00,0.155
03/05/2024 14:30:00,0.155
03/05/2024 14:45:00,0.155
03/05/2024 15:00:00,0.155
03/05/2024 15:15:00,0.155
03/05/2024 15:30:00,0.155
03/05/2024 15:45:00,0.154
03/05/2024 16:00:00,0.155
03/05/2024 16:15:00,0.154
03/05/2024 16:30:00,0.154
03/05/2024 16:45:00,0.154
03/05/2024 17:00:00,0.154
03/05/2024 17:15:00,0.155
03/05/2024 17:30:00,0.154
03/05/2024 17:45:00,0.155
03/05/2024 18:00:00,0.155
03/05/2024 18:15:00,0.155
03/05/2024 18:30:00,0.155
03/05/2024 18:45:00,0.154
03/05/2024 19:00:00,0.154
03/05/2024 19:15:00,0.154
03/05/2024 19:30:00,0.154
03/05/2024 19:45:00,0.154
03/05/2024 20:00:00,0.153
03/05/2024 20:15:00,0.153
03/05/2024 20:30:00,0.153
03/05/2024 20:45:00,0.153
03/05/2024 21:00:00,0.153
03/05/2024 21:15:00,0.152
03/05/2024 21:30:00,0.152
03/05/2024 21:45:00,0.152
03/05/2024 22:00:00,0.152
03/05/2024 22:15:00,0.152
03/05/2024 22:30:00,0.151
03/05/2024 22:45:00,0.151
03/05/2024 23:00:00,0.151
03/05/2024 23:15:00,0.151
03/05/2024 23:30:00,0.151
03/05/2024 23:45:00,0.151
04/05/2024 00:00:00,0.151
04/05/2024 00:15:00,0.151
04/05/2024 00:30:00,0.151
04/05/2024 00:45:00,0.151
04/05/2024 01:00:00,0.151
04/05/2024 01:15:00,0.151
04/05/2024 01:30:00,0.151
04/05/2024 01:45:00,0.151
04/05/2024 02:00:00,0.151
04/05/2024 02:15:00,0.151
04/05/2024 02:30:00,0.151
04/05/2024 02:45:00,0.151
04/05/2024 03:00:00,0.151
04/05/2024 03:15:00,0.149
04/05/2024 03:30:00,0.149
04/05/2024 03:45:00,0.149
04/05/2024 04:00:00,0.149
04/05/2024 04:15:00,0.149
04/05/2024 04:30:00,0.149
04/05/2024 04:45:00,0.149
04/05/2024 05:00:00,0.149
04/05/2024 05:15:00,0.149
04/05/2024 05:30:00,0.149
04/05/2024 05:45:00,0.149
04/05/2024 06:00:00,0.149
04/05/2024 06:15:00,0.149
04/05/2024 06:30:00,0.149
04/05/2024 06:45:00,0.149
04/05/2024 07:00:00,0.149
04/05/2024 07:15:00,0.149
04/05/2024 07:30:00,0.149
04/05/2024 07:45:00,0.149
04/05/2024 08:00:00,0.149
04/05/2024 08:15:00,0.149
04/05/2024 08:30:00,0.151
04/05/2024 08:45:00,0.152
04/05/2024 09:00:00,0.153
04/05/2024 09:15:00,0.154
04/05/2024 09:30:00,0.153
04/05/2024 09:45:00,0.152
04/05/2024 10:00:00,0.151
04/05/2024 10:15:00,0.149
04/05/2024 10:30:00,0.149
04/05/2024 10:45:00,0.149
04/05/2024 11:00:00,0.149
04/05/2024 11:15:00,0.149
04/05/2024 11:30:00,0.149
04/05/2024 11:45:00,0.149
04/05/2024 12:00:00,0.149
04/05/2024 12:15:00,0.149
04/05/2024 12:30:00,0.149
04/05/2024 12:45:00,0.149
04/05/2024 13:00:00,0.149
04/05/2024 13:15:00,0.149
04/05/2024 13:30:00,0.149
04/05/2024 13:45:00,0.149
04/05/2024 14:00:00,0.149
04/05/2024 14:15:00,0.149
04/05/2024 14:30:00,0.149
04/05/2024 14:45:00,0.149
04/05/2024 15:00:00,0.149
04/05/2024 15:15:00,0.149
04/05/2024 15:30:00,0.149
04/05/2024 15:45:00,0.148
04/05/2024 16:00:00,0.148
04/05/2024 16:15:00,0.148
04/05/2024 16:30:00,0.148
04/05/2024 16:45:00,0.148
04/05/2024 17:00:00,0.148
04/05/2024 17:15:00,0.148
04/05/2024 17:30:00,0.148
04/05/2024 17:45:00,0.148
04/05/2024 18:00:00,0.148
04/05/2024 18:15:00,0.148
04/05/2024 18:30:00,0.148
04/05/2024 18:45:00,0.148
04/05/2024 19:00:00,0.148
04/05/2024 19:15:00,0.148
04/05/2024 19:30:00,0.148
04/05/2024 19:45:00,0.148
04/05/2024 20:00:00,0.148
04/05/2024 20:15:00,0.148
04/05/2024 20:30:00,0.148
04/05/2024 20:45:00,0.148
04/05/2024 21:00:00,0.148
04/05/2024 21:15:00,0.148
04/05/2024 21:30:00,0.148
04/05/2024 21:45:00,0.148
04/05/2024 22:00:00,0.148
04/05/2024 22:15:00,0.148
04/05/2024 22:30:00,0.148
04/05/2024 22:45:00,0.148
04/05/2024 23:00:00,0.148
04/05/2024 23:15:00,0.148
04/05/2024 23:30:00,0.148
04/05/2024 23:45:00,0.148
05/05/2024 00:00:00,0.148
05/05/2024 00:15:00,0.148
05/05/2024 00:30:00,0.148
05/05/2024 00:45:00,0.148
05/05/2024 01:00:00,0.148
05/05/2024 01:15:00,0.147
05/05/2024 01:30:00,0.147
05/05/2024 01:45:00,0.147
05/05/2024 02:00:00,0.147
05/05/2024 02:15:00,0.147
05/05/2024 02:30:00,0.147
05/05/2024 02:45:00,0.147
05/05/2024 03:00:00,0.147
05/05/2024 03:15:00,0.147
05/05/2024 03:30:00,0.147
05/05/2024 03:45:00,0.147
05/05/2024 04:00:00,0.147
05/05/2024 04:15:00,0.148
05/05/2024 04:30:00,0.148
05/05/2024 04:45:00,0.148
05/05/2024 05:00:00,0.148
05/05/2024 05:15:00,0.148
05/05/2024 05:30:00,0.148
05/05/2024 05:45:00,0.148
05/05/2024 06:00:00,0.149
05/05/2024 06:15:00,0.155
05/05/2024 06:30:00,0.155
05/05/2024 06:45:00,0.156
05/05/2024 07:00:00,0.155
05/05/2024 07:15:00,0.155
05/05/2024 07:30:00,0.155
05/05/2024 07:45:00,0.156
05/05/2024 08:00:00,0.156
05/05/2024 08:15:00,0.155
05/05/2024 08:30:00,0.155
05/05/2024 08:45:00,0.155
05/05/2024 09:00:00,0.155
05/05/2024 09:15:00,0.155
05/05/2024 09:30:00,0.157
05/05/2024 09:45:00,0.161
05/05/2024 10:00:00,0.163
05/05/2024 10:15:00,0.164
05/05/2024 10:30:00,0.165
05/05/2024 10:45:00,0.165
05/05/2024 11:00:00,0.165
05/05/2024 11:15:00,0.164
05/05/2024 11:30:00,0.164
05/05/2024 11:45:00,0.165
05/05/2024 12:00:00,0.166
05/05/2024 12:15:00,0.167
05/05/2024 12:30:00,0.17
05/05/2024 12:45:00,0.174
05/05/2024 13:00:00,0.177
05/05/2024 13:15:00,0.177
05/05/2024 13:30:00,0.178
05/05/2024 13:45:00,0.179
05/05/2024 14:00:00,0.179
05/05/2024 14:15:00,0.179
05/05/2024 14:30:00,0.179
05/05/2024 14:45:00,0.179
05/05/2024 15:00:00,0.179
05/05/2024 15:15:00,0.18
05/05/2024 15:30:00,0.18
05/05/2024 15:45:00,0.18
05/05/2024 16:00:00,0.179
05/05/2024 16:15:00,0.179
05/05/2024 16:30:00,0.179
05/05/2024 16:45:00,0.179
05/05/2024 17:00:00,0.179
05/05/2024 17:15:00,0.179
05/05/2024 17:30:00,0.179
05/05/2024 17:45:00,0.179
05/05/2024 18:00:00,0.178
05/05/2024 18:15:00,0.178
05/05/2024 18:30:00,0.178
05/05/2024 18:45:00,0.178
05/05/2024 19:00:00,0.177
05/05/2024 19:15:00,0.177
05/05/2024 19:30:00,0.177
05/05/2024 19:45:00,0.177
05/05/2024 20:00:00,0.177
05/05/2024 20:15:00,0.177
05/05/2024 20:30:00,0.176
05/05/2024 20:45:00,0.176
05/05/2024 21:00:00,0.176
05/05/2024 21:15:00,0.176
05/05/2024 21:30:00,0.175
05/05/2024 21:45:00,0.174
05/05/2024 22:00:00,0.174
05/05/2024 22:15:00,0.174
05/05/2024 22:30:00,0.173
05/05/2024 22:45:00,0.173
05/05/2024 23:00:00,0.173
05/05/2024 23:15:00,0.172
05/05/2024 23:30:00,0.172
05/05/2024 23:45:00,0.172
06/05/2024 00:00:00,0.172
06/05/2024 00:15:00,0.17
06/05/2024 00:30:00,0.17
06/05/2024 00:45:00,0.17
06/05/2024 01:00:00,0.17
06/05/2024 01:15:00,0.17
06/05/2024 01:30:00,0.17
06/05/2024 01:45:00,0.169
06/05/2024 02:00:00,0.169
06/05/2024 02:15:00,0.169
06/05/2024 02:30:00,0.169
06/05/2024 02:45:00,0.169
06/05/2024 03:00:00,0.169
06/05/2024 03:15:00,0.169
06/05/2024 03:30:00,0.168
06/05/2024 03:45:00,0.168
06/05/2024 04:00:00,0.168
06/05/2024 04:15:00,0.167
06/05/2024 04:30:00,0.167
06/05/2024 04:45:00,0.167
06/05/2024 05:00:00,0.167
06/05/2024 05:15:00,0.167
06/05/2024 05:30:00,0.167
06/05/2024 05:45:00,0.167
06/05/2024 06:00:00,0.167
06/05/2024 06:15:00,0.167
06/05/2024 06:30:00,0.167
06/05/2024 06:45:00,0.167
06/05/2024 07:00:00,0.166
06/05/2024 07:15:00,0.166
06/05/2024 07:30:00,0.166
06/05/2024 07:45:00,0.166
06/05/2024 08:00:00,0.166
06/05/2024 08:15:00,0.166
06/05/2024 08:30:00,0.166
06/05/2024 08:45:00,0.166
06/05/2024 09:00:00,0.166
06/05/2024 09:15:00,0.166
06/05/2024 09:30:00,0.166
06/05/2024 09:45:00,0.166
06/05/2024 10:00:00,0.165
06/05/2024 10:15:00,0.165
06/05/2024 10:30:00,0.165
06/05/2024 10:45:00,0.165
06/05/2024 11:00:00,0.165
06/05/2024 11:15:00,0.165
06/05/2024 11:30:00,0.165
06/05/2024 11:45:00,0.165
06/05/2024 12:00:00,0.165
06/05/2024 12:15:00,0.165
06/05/2024 12:30:00,0.165
06/05/2024 12:45:00,0.165
06/05/2024 13:00:00,0.165
06/05/2024 13:15:00,0.164
06/05/2024 13:30:00,0.164
06/05/2024 13:45:00,0.164
06/05/2024 14:00:00,0.164
06/05/2024 14:15:00,0.164
06/05/2024 14:30:00,0.164
06/05/2024 14:45:00,0.164
06/05/2024 15:00:00,0.164
06/05/2024 15:15:00,0.164
06/05/2024 15:30:00,0.164
06/05/2024 15:45:00,0.163
06/05/2024 16:00:00,0.163
06/05/2024 16:15:00,0.163
06/05/2024 16:30:00,0.163
06/05/2024 16:45:00,0.163
06/05/2024 17:00:00,0.163
06/05/2024 17:15:00,0.163
06/05/2024 17:30:00,0.163
06/05/2024 17:45:00,0.163
06/05/2024 18:00:00,0.163
06/05/2024 18:15:00,0.162
06/05/2024 18:30:00,0.162
06/05/2024 18:45:00,0.162
06/05/2024 19:00:00,0.162
06/05/2024 19:15:00,0.162
06/05/2024 19:30:00,0.162
06/05/2024 19:45:00,0.162
06/05/2024 20:00:00,0.162
06/05/2024 20:15:00,0.162
06/05/2024 20:30:00,0.162
06/05/2024 20:45:00,0.161
06/05/2024 21:00:00,0.161
06/05/2024 21:15:00,0.161
06/05/2024 21:30:00,0.161
06/05/2024 21:45:00,0.161
06/05/2024 22:00:00,0.161
06/05/2024 22:15:00,0.162
06/05/2024 22:30:00,0.162
06/05/2024 22:45:00,0.164
06/05/2024 23:00:00,0.167
06/05/2024 23:15:00,0.178
06/05/2024 23:30:00,0.198
06/05/2024 23:45:00,0.209
07/05/2024 00:00:00,0.214
07/05/2024 00:15:00,0.221
07/05/2024 00:30:00,0.231
07/05/2024 00:45:00,0.235
07/05/2024 01:00:00,0.237
07/05/2024 01:15:00,0.237
07/05/2024 01:30:00,0.235
07/05/2024 01:45:00,0.233
07/05/2024 02:00:00,0.232
07/05/2024 02:15:00,0.231
07/05/2024 02:30:00,0.23
07/05/2024 02:45:00,0.228
07/05/2024 03:00:00,0.227
07/05/2024 03:15:00,0.224
07/05/2024 03:30:00,0.222
07/05/2024 03:45:00,0.221
07/05/2024 04:00:00,0.221
07/05/2024 04:15:00,0.22
07/05/2024 04:30:00,0.218
07/05/2024 04:45:00,0.217
07/05/2024 05:00:00,0.216
07/05/2024 05:15:00,0.214
07/05/2024 05:30:00,0.213
07/05/2024 05:45:00,0.211
07/05/2024 06:00:00,0.21
07/05/2024 06:15:00,0.21
07/05/2024 06:30:00,0.208
07/05/2024 06:45:00,0.208
07/05/2024 07:00:00,0.207
07/05/2024 07:15:00,0.206
07/05/2024 07:30:00,0.203
07/05/2024 07:45:00,0.202
07/05/2024 08:00:00,0.201
07/05/2024 08:15:00,0.2
07/05/2024 08:30:00,0.199
07/05/2024 08:45:00,0.199
07/05/2024 09:00:00,0.199
07/05/2024 09:15:00,0.198
07/05/2024 09:30:00,0.196
07/05/2024 09:45:00,0.195
07/05/2024 10:00:00,0.194
07/05/2024 10:15:00,0.194
07/05/2024 10:30:00,0.192
07/05/2024 10:45:00,0.192
07/05/2024 11:00:00,0.191
07/05/2024 11:15:00,0.191
07/05/2024 11:30:00,0.19
07/05/2024 11:45:00,0.189
07/05/2024 12:00:00,0.189
07/05/2024 12:15:00,0.188
07/05/2024 12:30:00,0.188
07/05/2024 12:45:00,0.187
07/05/2024 13:00:00,0.187
07/05/2024 13:15:00,0.186
07/05/2024 13:30:00,0.186
07/05/2024 13:45:00,0.186
07/05/2024 14:00:00,0.185
07/05/2024 14:15:00,0.184
07/05/2024 14:30:00,0.184
07/05/2024 14:45:00,0.183
07/05/2024 15:00:00,0.183
07/05/2024 15:15:00,0.183
07/05/2024 15:30:00,0.18
07/05/2024 15:45:00,0.18
07/05/2024 16:00:00,0.179
07/05/2024 16:15:00,0.179
07/05/2024 16:30:00,0.178
07/05/2024 16:45:00,0.177
07/05/2024 17:00:00,0.177
07/05/2024 17:15:00,0.177
